Weather History for Easton, MD

Change the Weather History Date:

Saturday, May 26, 2012

  Actual Average Record
Temperature  
Mean Temperature 75 °F -  
Max Temperature 86 °F 73 °F 91 °F (2011)
Min Temperature 64 °F 54 °F 39 °F (1956)
Cooling Degree Days 10    
Growing Degree Days 25 (Base 50)    
Moisture  
Dew Point 68 °F    
Average Humidity 89    
Maximum Humidity 100    
Minimum Humidity 58    
Precipitation  
Precipitation 0.00 in - - ()
Sea Level Pressure  
Sea Level Pressure 30.18 in    
Wind  
Wind Speed 4 mph (SSW)    
Max Wind Speed 9 mph    
Max Gust Speed -    
Visibility 8 miles    
Events Fog    
Averages and records for this station are not official NWS values.
T = Trace of Precipitation, MM = Missing Value Source: NWS Daily Summary

Daily Weather History Graph

Daily Weather History Graph

Search for Another Location

Airport:

Trip Planner

Search our weather history database for the weather conditions in past years. The results will help you decide how hot, cold, wet, or windy it might be!

Date:

Astronomy

May. 26, 2012 Rise Set
Actual Time 5:43 AM EDT 8:19 PM EDT
Civil Twilight 5:12 AM EDT 8:50 PM EDT
Nautical Twilight 4:34 AM EDT 9:29 PM EDT
Astronomical Twilight 3:51 AM EDT 10:12 PM EDT
Moon 10:41 AM EDT No Moon Set
Length of Visible Light 15h 37m
Length of Day
14h 35m
Waxing Crescent, 28% of the Moon is Illuminated
May 26
Waxing Crescent
May 28
First Quarter
Jun 4
Full
Jun 11
Last Quarter
Jun 19
New

Hourly Weather History & Observations

Time (EDT) Temp. Heat Index Dew Point Humidity Pressure Visibility Wind Dir Wind Speed Gust Speed Precip Events Conditions
12:18 AM 69.8 °F - 69.8 °F 100% 30.16 in 10.0 mi South 4.6 mph - N/A   Clear
12:39 AM 68.0 °F - 68.0 °F 100% 30.16 in 10.0 mi South 3.5 mph - N/A   Clear
1:00 AM 68.0 °F - 68.0 °F 100% 30.17 in 10.0 mi SSE 3.5 mph - N/A   Clear
1:21 AM 66.2 °F - 66.2 °F 100% 30.18 in 10.0 mi Calm Calm - N/A   Scattered Clouds
1:42 AM 68.0 °F - 68.0 °F 100% 30.18 in 10.0 mi Calm Calm - N/A   Mostly Cloudy
2:03 AM 68.0 °F - 68.0 °F 100% 30.18 in 10.0 mi Calm Calm - N/A   Scattered Clouds
2:24 AM 66.2 °F - 66.2 °F 100% 30.18 in 10.0 mi Calm Calm - N/A   Clear
2:48 AM 66.2 °F - 66.2 °F 100% 30.18 in 7.0 mi Calm Calm - N/A   Clear
3:09 AM 64.4 °F - 64.4 °F 100% 30.17 in 7.0 mi Calm Calm - N/A   Scattered Clouds
3:30 AM 64.4 °F - 64.4 °F 100% 30.18 in 7.0 mi Calm Calm - N/A   Clear
3:51 AM 64.4 °F - 64.4 °F 100% 30.18 in 7.0 mi SE 4.6 mph - N/A   Scattered Clouds
4:12 AM 66.2 °F - 66.2 °F 100% 30.18 in 1.0 mi SE 4.6 mph - N/A   Overcast
4:33 AM 66.2 °F - 66.2 °F 100% 30.18 in 4.0 mi SSE 3.5 mph - N/A   Mostly Cloudy
4:54 AM 66.2 °F - 66.2 °F 100% 30.18 in 1.2 mi SSE 4.6 mph - N/A   Mostly Cloudy
5:15 AM 68.0 °F - 68.0 °F 100% 30.18 in 1.0 mi South 3.5 mph - N/A   Overcast
5:36 AM 68.0 °F - 68.0 °F 100% 30.19 in 3.0 mi South 3.5 mph - N/A   Overcast
5:50 AM 68.0 °F - 68.0 °F 100% 30.20 in 0.5 mi Calm Calm - N/A Fog Fog
5:57 AM 68.0 °F - 68.0 °F 100% 30.20 in 1.5 mi SSW 4.6 mph - N/A   Overcast
6:12 AM 68.0 °F - 68.0 °F 100% 30.20 in 0.8 mi Calm Calm - N/A   Overcast
6:50 AM 68.0 °F - 68.0 °F 100% 30.20 in 1.0 mi SW 3.5 mph - N/A   Overcast
7:25 AM 68.0 °F - 68.0 °F 100% 30.21 in 3.0 mi SW 3.5 mph - N/A   Mostly Cloudy
7:50 AM 69.8 °F - 69.8 °F 100% 30.20 in 7.0 mi SSW 3.5 mph - N/A   Mostly Cloudy
8:27 AM 73.4 °F - 71.6 °F 94% 30.21 in 10.0 mi SW 3.5 mph - N/A   Scattered Clouds
8:50 AM 75.2 °F - 71.6 °F 89% 30.21 in 10.0 mi SW 4.6 mph - N/A   Scattered Clouds
9:50 AM 77.0 °F - 71.6 °F 83% 30.21 in 10.0 mi SW 4.6 mph - N/A   Mostly Cloudy
10:50 AM 80.6 °F 84.6 °F 71.6 °F 74% 30.21 in 10.0 mi SW 5.8 mph - N/A   Scattered Clouds
11:50 AM 82.4 °F 86.3 °F 69.8 °F 66% 30.21 in 10.0 mi SSW 6.9 mph - N/A   Scattered Clouds
12:50 PM 84.2 °F 89.6 °F 71.6 °F 66% 30.21 in 10.0 mi SW 6.9 mph - N/A   Scattered Clouds
1:48 PM 86.0 °F 91.8 °F 71.6 °F 62% 30.20 in 10.0 mi SW 9.2 mph - N/A   Scattered Clouds
2:50 PM 84.2 °F 89.6 °F 71.6 °F 66% 30.18 in 10.0 mi SW 9.2 mph - N/A   Scattered Clouds
3:50 PM 86.0 °F 90.4 °F 69.8 °F 58% 30.16 in 10.0 mi WSW 9.2 mph - N/A   Scattered Clouds
4:50 PM 84.2 °F 87.3 °F 68.0 °F 58% 30.14 in 10.0 mi SSW 9.2 mph - N/A   Clear
5:50 PM 82.4 °F 84.6 °F 66.2 °F 58% 30.15 in 10.0 mi SW 5.8 mph - N/A   Clear
6:50 PM 80.6 °F 83.2 °F 68.0 °F 65% 30.17 in 10.0 mi SSW 5.8 mph - N/A   Clear
7:50 PM 77.0 °F - 68.0 °F 74% 30.17 in 10.0 mi South 8.1 mph - N/A   Clear
8:50 PM 75.2 °F - 68.0 °F 78% 30.18 in 10.0 mi SSW 6.9 mph - N/A   Clear
10:18 PM 71.6 °F - 68.0 °F 88% 30.16 in 10.0 mi South 8.1 mph - N/A   Clear
10:39 PM 71.6 °F - 68.0 °F 88% 30.16 in 10.0 mi South 6.9 mph - N/A   Clear
11:00 PM 71.6 °F - 68.0 °F 88% 30.17 in 10.0 mi SSW 4.6 mph - N/A   Clear
11:21 PM 71.6 °F - 69.8 °F 94% 30.17 in 10.0 mi SSW 5.8 mph - N/A   Clear
11:42 PM 71.6 °F - 68.0 °F 88% 30.18 in 10.0 mi SW 3.5 mph - N/A   Clear